Theta_e
263 263 263 263 263 264 264 264 264 264 264 264 264 264 264 264 264 264 264 264 265 266 266 266 267 267 267 267 267 268 268 268 269 269 269 270 270 270 271 273 274 276 277 278 280 281 282 284 285 286 288 289 289 290 290 291 291 292 292 293 294 295 296 296 297 297 297 299 300 300 301 302 302 303
262 262 262 262 262 263 263 263 263 263 263 263 263 263 263 263 263 263 263 263 264 265 265 266 266 266 266 266 266 266 266 267 267 268 268 268 269 269 270 271 272 273 275 276 277 278 280 281 283 284 285 287 288 289 290 290 291 291 292 293 294 295 295 295 296 296 296 297 298 298 298 300 300 301
261 261 261 261 261 262 262 262 262 262 262 262 262 262 262 262 262 263 263 263 263 264 264 265 265 265 265 265 265 265 265 266 266 266 267 267 268 268 269 270 270 271 273 274 275 276 278 279 281 282 284 285 286 287 288 289 290 291 291 292 293 294 294 294 295 295 296 296 297 297 297 298 299 299
261 261 261 261 261 261 261 261 261 261 261 261 261 261 261 261 261 262 262 262 262 263 263 263 264 264 264 264 264 264 264 265 265 266 266 267 267 268 268 269 269 270 271 272 274 275 276 278 279 280 282 283 284 285 286 288 289 290 290 291 292 292 293 293 294 295 295 296 296 296 297 297 298 299
260 260 260 260 261 261 261 261 261 261 261 261 261 261 261 261 261 261 262 262 262 262 262 262 263 263 263 263 263 264 264 264 264 265 265 266 267 267 268 268 269 269 270 272 273 274 275 276 277 279 280 282 283 284 285 286 288 289 289 290 290 291 291 292 293 293 294 295 296 296 296 296 297 298
260 260 260 260 260 260 260 260 260 260 260 260 260 260 260 260 261 261 261 261 261 261 262 262 262 262 262 263 263 263 264 264 264 264 265 265 266 266 267 267 267 268 269 271 272 274 275 275 276 277 279 280 281 283 284 285 286 288 288 289 289 289 289 290 291 291 292 293 294 295 296 296 296 296
259 259 260 260 260 260 260 260 260 260 260 260 260 260 260 260 260 260 261 261 261 261 261 261 261 262 262 262 262 263 263 263 264 264 264 265 264 265 265 265 266 267 268 269 271 272 274 275 276 276 277 278 280 281 282 283 285 286 287 287 288 288 288 288 289 289 290 291 292 294 295 295 296 296
259 259 259 259 259 259 259 259 259 259 259 259 260 260 260 260 260 260 260 260 261 261 261 261 261 261 262 262 262 262 263 263 263 263 264 264 264 264 265 265 266 266 267 269 270 271 272 273 274 275 276 277 278 280 281 282 283 284 285 286 286 287 287 287 287 288 289 290 291 292 293 294 295 296
258 258 259 259 259 259 259 259 259 259 259 259 259 259 259 260 260 260 260 260 260 260 261 261 261 261 261 261 262 262 262 262 263 263 263 263 264 264 264 265 265 266 267 267 268 269 270 271 273 274 275 276 277 278 280 281 282 283 284 285 285 286 286 286 286 287 288 289 290 290 291 292 293 295
258 258 258 259 259 259 259 259 259 259 259 259 259 259 259 259 259 259 260 260 260 260 260 260 261 261 261 261 261 262 262 262 262 263 263 263 263 264 264 264 265 265 266 266 267 268 269 270 271 272 273 275 276 277 278 280 281 281 282 283 284 285 285 285 286 286 287 288 289 288 288 290 291 293
258 258 259 259 259 259 259 259 259 259 259 259 259 259 259 259 259 259 259 259 260 260 260 260 260 260 260 261 261 261 261 262 262 262 262 263 263 263 264 264 264 265 265 266 267 267 268 269 270 271 273 274 274 275 277 278 279 280 281 282 283 284 284 285 285 286 287 288 288 288 287 289 291 292
259 259 259 259 259 259 259 259 259 259 259 259 259 259 259 259 259 259 259 259 259 259 260 260 260 260 260 261 261 261 261 261 262 262 262 263 263 263 264 264 264 265 265 265 266 266 267 268 269 270 272 273 274 275 275 276 278 279 280 281 282 283 284 284 285 285 286 287 287 287 287 288 290 290
259 259 259 259 259 259 259 259 259 260 260 260 260 260 260 260 259 259 259 259 259 259 260 260 260 260 260 261 261 261 261 261 261 262 262 263 263 263 264 264 264 264 265 265 265 265 266 266 267 268 270 271 272 273 274 275 276 277 279 280 281 283 284 284 285 285 285 286 287 287 287 288 288 289
259 259 259 259 259 259 259 260 260 260 260 260 260 260 260 260 260 260 260 260 260 260 260 260 260 260 260 260 261 261 261 261 262 262 262 262 263 263 263 263 264 264 265 265 265 265 266 267 267 268 269 270 271 273 274 275 276 277 278 280 281 282 283 284 284 284 284 285 286 287 287 288 288 288
259 259 259 259 259 259 259 260 260 260 260 260 261 261 261 261 261 261 261 261 261 261 260 260 260 260 260 260 261 261 261 261 262 262 262 262 263 263 263 263 264 264 265 265 265 266 266 266 267 268 269 270 271 272 273 274 275 277 278 279 280 281 283 283 283 284 284 284 285 286 287 287 287 287
259 259 259 259 259 259 259 259 259 260 260 260 260 261 261 261 262 262 262 262 262 262 261 261 261 261 261 261 261 261 261 262 262 262 262 262 263 263 263 263 264 265 265 265 265 265 266 266 266 267 268 269 270 271 272 273 274 276 277 279 280 281 282 282 283 283 283 283 285 285 286 286 286 286
258 258 258 259 259 259 259 259 259 260 260 260 260 260 261 261 261 262 262 263 263 263 263 262 262 262 262 262 262 262 262 262 262 262 262 263 263 263 263 264 264 265 265 265 265 265 265 266 266 266 267 267 268 269 270 271 273 274 276 278 279 280 281 281 282 283 283 283 284 285 285 285 286 286
258 258 259 259 259 259 259 259 259 259 260 260 260 260 260 261 261 261 262 262 262 263 263 263 263 263 263 263 263 263 263 263 263 263 263 263 263 264 264 264 264 265 265 265 265 265 265 265 266 266 266 266 267 268 269 271 272 274 275 277 278 279 280 281 281 282 282 283 283 284 284 284 284 285
258 258 258 259 259 259 259 259 260 260 260 260 260 261 261 261 261 261 261 262 262 262 262 262 263 263 263 263 263 264 264 264 264 264 264 264 264 264 264 264 264 265 265 265 265 265 265 265 265 266 266 266 267 268 269 271 272 273 274 276 277 279 280 280 280 281 281 282 282 283 283 284 284 284
258 258 258 258 259 259 259 259 260 260 261 261 261 262 262 262 262 262 262 263 263 263 263 263 263 263 263 264 264 264 264 264 264 264 264 265 265 265 265 265 265 265 265 265 265 265 265 265 265 266 266 266 267 267 268 270 271 272 274 275 277 278 280 280 280 280 281 281 282 282 282 283 283 283
258 258 258 258 259 259 259 259 260 261 262 262 262 262 262 263 263 263 263 263 264 264 265 265 265 265 265 265 266 266 266 266 266 265 265 265 265 265 265 265 265 265 265 265 265 265 265 265 265 266 266 266 267 268 268 269 270 271 273 275 277 278 280 280 280 280 280 281 281 282 282 282 282 282
258 258 258 259 259 259 259 260 260 261 262 262 262 263 263 263 263 263 263 264 264 264 265 265 266 266 266 266 267 267 267 267 267 267 267 266 266 266 266 265 266 266 266 266 266 265 265 265 265 266 266 266 267 268 269 269 270 271 273 275 276 278 280 280 279 279 280 280 281 281 281 281 281 281
258 258 259 259 259 259 260 260 261 262 262 263 263 263 263 263 264 264 264 264 264 264 265 265 265 265 266 266 266 266 267 267 267 267 268 268 267 267 266 266 266 265 265 266 266 265 265 265 266 266 266 267 267 268 269 270 271 272 273 274 275 278 279 280 279 280 280 280 280 281 281 281 281 281
258 258 258 258 258 259 260 260 261 262 263 263 263 263 263 264 264 264 264 265 265 265 265 265 265 265 265 266 266 266 266 266 267 267 267 268 268 268 267 267 266 266 266 267 266 266 265 265 266 266 266 267 268 269 270 271 272 273 274 274 275 277 278 279 279 279 279 279 280 280 280 280 280 280
258 258 258 258 258 258 259 260 261 262 262 263 263 263 263 263 264 264 264 264 264 264 265 265 266 266 266 266 266 266 266 267 267 267 267 268 268 268 268 268 267 267 267 267 267 266 265 266 266 266 267 267 268 269 270 271 272 273 274 274 275 276 277 278 278 277 277 278 278 278 278 278 279 279
258 258 258 258 258 259 259 260 261 261 262 262 262 262 262 263 263 262 261 261 262 263 264 265 266 266 266 266 267 267 267 267 267 268 268 268 267 268 268 268 268 267 267 267 267 267 266 266 266 267 268 268 269 270 270 271 272 273 274 274 274 275 275 276 276 276 276 276 276 276 276 276 277 278
258 258 258 258 259 259 260 260 260 260 260 260 260 261 261 261 260 259 259 260 261 262 263 264 265 266 267 267 267 267 267 268 268 268 268 267 267 267 267 267 268 268 268 267 267 267 267 267 267 267 267 268 269 270 270 271 272 273 274 274 274 274 274 274 274 275 275 275 275 275 275 276 276 277
258 258 258 259 259 259 258 258 258 258 258 258 259 259 259 258 257 257 258 259 259 260 261 263 264 266 267 268 268 268 268 268 268 268 267 267 266 266 266 267 267 267 268 267 267 267 267 267 267 267 267 268 268 269 270 270 272 272 273 273 273 274 274 274 274 274 274 274 274 274 275 275 276 277
258 258 258 258 257 256 256 256 255 255 255 256 257 257 256 256 256 256 257 257 258 259 260 261 263 264 266 267 268 268 268 267 267 267 267 266 266 266 266 266 266 266 267 267 267 267 267 267 267 267 268 268 269 270 270 271 271 272 272 273 273 273 274 274 274 274 274 274 274 274 275 275 276 277
257 256 256 255 254 254 253 253 253 253 254 254 255 255 255 255 254 255 256 257 257 258 259 260 261 262 264 266 268 268 267 267 267 267 267 266 266 266 265 265 265 265 266 266 266 267 267 267 267 268 268 269 269 269 270 270 271 271 272 272 273 273 273 274 274 274 274 275 275 275 275 276 276 277
255 255 254 253 252 252 252 252 252 252 252 253 253 253 253 253 253 254 255 256 257 258 258 259 259 261 263 266 268 268 267 267 267 267 267 267 267 266 266 265 265 265 265 265 265 266 266 267 267 267 268 268 268 268 269 270 270 271 271 272 272 273 273 274 275 275 275 276 276 276 277 277 277 278
254 254 253 252 251 251 251 251 251 251 251 251 252 252 252 252 253 253 254 255 256 256 257 258 259 261 263 266 268 268 268 268 268 268 268 268 267 267 267 266 266 266 266 265 265 265 266 266 266 267 267 267 268 268 269 269 270 271 271 272 272 273 273 274 275 275 276 277 277 277 278 278 278 279
253 252 251 251 250 250 250 250 250 250 251 251 251 251 251 252 252 253 253 254 254 255 256 257 259 260 262 264 267 268 269 269 269 269 269 269 269 268 267 267 266 266 266 266 266 266 266 266 267 267 267 268 268 268 269 270 271 271 271 272 272 273 273 274 274 275 276 277 278 278 278 278 278 279
252 251 250 250 250 250 250 250 250 250 250 250 250 250 251 251 251 252 253 253 253 254 255 257 258 259 260 262 264 267 268 270 270 270 270 271 270 269 268 267 267 267 267 267 267 267 267 267 267 268 268 268 268 269 269 270 271 272 272 272 273 273 273 274 274 274 275 277 278 278 279 279 279 279
251 250 250 250 249 250 250 249 249 250 250 250 250 250 250 250 251 251 252 252 253 254 255 256 257 258 259 260 262 263 266 269 271 271 271 271 270 269 268 268 268 268 268 268 268 268 268 268 268 269 269 269 270 270 270 271 272 272 272 272 273 273 273 274 274 274 275 276 278 279 279 279 279 279
250 249 249 249 249 249 249 249 249 249 249 249 250 250 250 250 250 251 251 252 252 254 255 255 256 256 257 259 260 261 263 267 270 271 271 271 270 270 269 269 269 269 269 269 270 270 270 270 270 270 270 271 271 271 271 271 272 272 272 273 273 273 273 274 274 274 275 276 278 279 279 278 278 279
250 249 249 249 249 249 249 249 249 249 249 249 249 249 250 250 250 250 251 251 252 253 254 254 255 255 256 257 258 259 260 263 267 270 271 271 271 271 270 270 270 270 270 270 270 271 271 271 271 271 271 271 271 271 271 272 272 272 272 273 273 273 273 274 274 275 276 276 278 279 279 278 278 278
249 249 249 249 249 249 249 249 249 249 249 249 249 249 249 250 250 250 251 251 252 253 254 253 254 254 255 255 256 257 258 260 264 268 271 271 271 271 271 271 271 271 270 270 270 271 271 272 272 272 271 271 271 271 271 272 272 273 273 273 273 273 273 274 274 275 276 277 278 279 278 278 278 278
249 249 249 249 249 249 249 249 249 249 249 249 249 249 249 249 250 250 250 251 252 253 253 253 253 254 254 254 255 256 257 258 262 266 269 271 271 271 271 271 271 270 270 270 270 270 271 271 272 272 271 271 271 271 271 271 272 272 273 273 273 273 273 273 274 275 276 278 278 278 277 277 277 277
249 249 249 249 249 249 249 249 249 249 249 249 249 249 249 249 250 250 250 251 252 252 252 253 253 253 253 253 254 255 256 257 260 263 267 270 271 271 271 271 271 271 270 269 269 270 270 271 271 272 271 271 271 271 272 272 272 272 272 273 273 273 273 274 274 275 277 278 278 277 277 277 277 277
249 249 249 249 249 249 248 248 249 249 249 249 249 249 249 249 249 250 250 251 251 252 252 252 252 253 253 253 253 254 255 256 258 261 265 269 271 271 271 271 271 271 270 269 269 269 270 271 271 271 272 272 271 271 272 272 273 273 273 274 274 274 274 274 274 275 277 278 278 277 277 277 276 276
249 249 249 249 248 248 248 248 248 249 249 249 249 249 249 249 250 250 250 250 251 251 252 252 252 252 252 252 253 253 254 256 257 260 264 268 270 271 271 271 270 270 270 270 270 270 270 271 271 271 271 271 271 272 272 272 272 273 274 274 274 275 275 275 275 276 277 278 278 277 277 277 277 276
249 249 248 248 248 248 248 248 248 248 248 249 249 249 249 249 250 250 250 250 251 251 252 252 252 252 252 252 252 253 254 255 257 259 262 266 269 270 271 271 271 270 270 271 271 271 271 271 271 271 271 271 271 271 272 272 273 273 274 274 275 275 275 276 277 277 278 278 278 278 278 278 277 277
248 248 248 248 248 248 247 248 248 248 248 248 249 249 249 249 250 250 250 250 251 251 251 251 251 251 251 252 252 253 254 255 257 259 261 265 268 270 271 271 271 271 270 271 271 272 272 271 271 271 271 271 271 271 272 272 273 274 275 275 275 275 276 276 277 278 278 278 278 279 279 278 278 278
248 248 248 248 247 247 247 247 247 248 248 248 248 249 249 249 249 250 250 250 251 251 251 251 251 251 251 252 252 253 254 256 257 258 260 263 268 270 271 271 271 271 271 271 271 272 272 271 271 271 271 271 272 272 272 273 273 274 275 276 276 275 275 276 277 277 276 277 277 278 278 279 278 278
Wind_Speed
22 22 21 20 20 20 19 20 20 19 20 20 19 19 18 15 11 9 9 9 10 14 18 21 24 24 25 27 28 30 34 37 37 38 40 39 39 38 35 33 31 29 28 27 26 27 28 30 31 31 32 36 38 36 35 35 35 35 35 35 36 36 36 36 35 35 34 33 31 28 28 29 30 31
25 24 24 22 22 22 21 22 22 21 21 21 22 22 23 22 17 12 12 12 15 18 19 21 21 22 25 28 31 33 35 37 37 38 42 42 42 42 40 39 37 34 32 31 30 29 29 30 32 32 32 34 37 36 35 37 36 36 36 36 36 37 37 38 37 36 35 33 33 32 30 29 30 30
25 24 25 24 23 23 22 23 22 22 22 23 24 24 23 24 23 21 16 12 18 23 21 23 25 23 26 30 32 34 35 34 34 35 39 41 42 43 43 44 43 40 37 36 34 33 32 32 32 34 34 34 37 36 35 37 39 37 37 37 36 36 37 37 38 38 36 34 32 31 32 32 31 30
25 25 25 24 24 23 23 23 22 22 22 23 24 24 24 25 25 26 21 13 20 29 25 26 31 26 26 28 27 31 36 34 32 33 33 34 35 35 37 39 40 40 39 38 37 36 35 34 33 34 35 35 37 37 36 37 39 39 38 37 36 35 35 35 36 37 37 37 34 33 33 34 33 30
25 26 26 25 25 23 23 24 23 23 24 24 25 25 25 26 25 25 24 17 19 29 28 26 31 29 25 27 27 28 33 32 30 31 31 30 29 28 31 34 35 36 36 36 36 36 37 37 36 35 35 36 37 38 37 36 38 40 39 38 36 34 33 33 33 33 33 36 38 38 37 36 36 34
26 26 27 27 26 25 25 25 25 25 26 25 26 27 26 27 28 26 26 22 19 25 30 29 30 30 25 26 28 25 27 30 30 30 30 31 33 34 34 35 36 36 36 35 35 35 35 36 37 37 37 36 37 38 38 37 38 39 39 39 37 33 32 32 31 31 30 31 35 38 39 38 39 38
27 26 27 27 26 26 26 27 27 27 27 27 27 29 28 28 31 29 27 27 24 25 31 31 31 30 25 25 28 26 25 28 28 27 29 33 37 40 38 37 37 37 37 37 37 37 36 35 36 37 38 38 37 38 39 39 38 38 38 38 38 35 33 32 31 31 29 29 31 33 36 38 40 40
27 26 27 27 27 27 28 28 28 27 28 28 28 30 30 29 31 32 30 30 30 28 29 33 34 32 27 26 28 28 25 27 29 28 30 34 38 41 39 34 31 32 32 33 36 38 39 38 37 36 37 38 39 39 39 39 38 36 36 38 39 38 35 33 32 31 30 30 30 30 32 35 37 38
27 27 28 28 28 28 28 28 28 28 28 29 29 31 32 32 33 34 33 33 33 30 29 34 37 35 31 27 29 31 28 27 30 30 28 30 32 35 36 33 32 33 31 31 33 35 37 39 39 38 37 37 39 39 39 40 39 38 37 38 39 39 37 34 33 32 31 30 30 30 32 34 34 34
28 28 29 30 29 29 30 30 29 30 30 31 32 33 35 35 35 36 35 33 32 32 33 35 37 37 34 29 28 33 31 27 29 30 28 28 28 29 32 34 37 36 33 30 29 29 32 35 38 39 38 37 37 38 38 39 39 39 38 39 39 40 39 35 33 32 31 30 30 32 33 34 34 32
29 29 29 30 30 29 30 31 31 32 32 32 34 35 36 37 36 35 35 33 32 32 32 33 34 36 36 30 28 34 36 31 30 31 28 26 30 32 31 33 35 35 32 30 30 30 31 32 35 37 38 39 39 39 40 40 40 40 40 40 40 40 40 37 33 32 31 30 31 32 32 32 31 28
28 29 29 29 30 30 31 32 33 33 34 34 35 36 37 37 35 34 34 33 31 31 29 29 32 33 33 30 28 33 35 30 28 30 27 25 30 33 32 32 33 33 35 36 36 35 33 32 33 34 35 36 37 38 40 41 41 42 41 41 41 41 41 38 34 33 32 30 30 29 29 30 28 24
28 28 28 29 29 30 31 32 33 33 34 34 35 36 35 34 34 33 33 32 31 29 27 27 28 28 27 27 25 28 32 30 29 31 29 27 31 33 32 35 36 35 35 37 38 37 34 32 33 35 36 36 34 35 37 38 40 42 42 42 42 42 42 39 34 33 33 32 30 28 27 28 28 24
28 27 28 29 28 29 30 31 32 33 34 35 36 37 36 34 32 31 30 30 30 28 26 26 26 22 21 26 27 28 34 35 33 33 30 28 31 29 26 32 40 39 33 32 36 37 34 30 29 32 35 37 36 34 34 35 36 39 41 42 43 42 42 40 35 33 34 33 31 29 26 26 28 27
27 27 28 28 28 28 30 31 32 33 34 35 36 37 37 37 36 35 33 31 30 29 27 27 28 23 22 30 33 32 34 37 36 36 32 28 28 25 17 18 30 37 30 25 29 32 31 28 28 30 32 33 34 33 33 33 34 36 39 40 43 43 42 41 37 33 34 35 33 32 28 25 26 27
26 27 27 28 28 29 30 30 32 32 32 33 33 35 37 38 39 40 40 38 34 32 29 28 29 28 28 32 35 34 36 38 39 37 33 30 30 27 20 17 27 37 32 22 22 29 32 31 30 33 34 33 34 35 35 35 35 36 38 39 42 44 44 43 38 33 34 36 34 34 33 30 28 26
26 27 27 28 29 30 31 31 31 32 33 34 34 36 37 39 40 42 44 44 40 38 35 31 31 34 34 35 38 41 42 40 38 35 33 35 33 29 28 28 35 39 30 21 22 28 34 34 29 32 35 34 36 39 38 39 38 37 39 40 43 45 45 45 42 35 34 36 36 35 34 33 33 30
27 27 28 28 30 31 31 31 32 33 34 35 36 38 38 40 42 42 43 44 44 44 41 37 37 39 40 41 44 48 47 42 39 37 36 38 37 35 36 37 39 38 32 27 23 22 32 36 30 33 39 37 37 39 39 40 40 38 39 41 43 44 44 46 46 40 36 35 36 36 34 32 32 32
27 27 28 29 30 31 32 32 32 32 34 36 37 39 40 41 41 42 43 44 44 46 46 45 45 45 46 48 48 50 51 48 47 46 45 45 42 38 36 34 36 37 36 34 25 19 30 37 29 33 40 36 35 37 36 36 38 38 40 41 42 44 43 44 45 42 38 36 35 36 34 32 31 30
28 28 28 29 30 31 33 34 33 34 37 37 38 39 39 41 41 41 42 44 45 47 47 48 49 49 50 51 50 50 51 50 51 50 47 46 42 34 27 25 30 34 35 37 32 24 28 32 28 31 36 33 33 37 37 36 38 39 40 40 41 44 43 43 44 43 40 37 36 36 34 32 30 28
28 28 29 29 30 32 34 36 37 38 39 39 38 38 38 40 40 41 43 44 45 46 46 47 48 49 49 50 50 52 51 51 52 46 37 35 35 28 17 14 21 30 35 39 37 29 26 27 25 29 33 32 33 34 35 37 38 39 40 39 40 42 42 42 43 41 38 36 36 35 33 31 29 27
29 30 30 29 29 32 35 37 39 41 41 39 37 35 35 35 36 39 42 43 43 44 44 45 46 46 47 46 46 47 47 48 49 43 35 34 33 25 16 14 18 25 34 40 36 27 24 25 25 26 28 29 31 32 33 36 38 39 39 39 37 38 41 41 40 36 34 33 33 32 30 28 26 25
29 30 31 30 30 32 35 38 39 38 38 37 35 33 31 30 31 36 40 40 42 43 43 43 44 44 46 46 46 45 45 45 46 44 41 39 34 26 22 22 18 13 20 34 36 27 22 23 24 23 17 14 21 28 29 32 36 38 38 36 33 35 40 41 36 31 31 31 28 26 26 25 24 24
28 30 31 32 31 32 34 37 37 35 36 39 39 35 30 27 30 35 37 37 38 40 40 42 43 43 44 46 46 45 45 45 46 45 44 41 38 33 29 27 21 14 19 31 36 30 24 22 23 25 19 11 14 22 25 27 31 34 35 33 30 31 33 33 29 26 26 25 23 23 24 24 24 24
28 30 31 33 34 35 35 35 36 38 41 42 39 32 28 28 31 32 31 30 31 32 34 37 38 40 41 42 42 42 42 43 44 44 43 42 40 37 34 29 24 23 28 35 35 31 26 22 22 24 23 18 17 22 25 27 30 30 30 28 27 27 27 26 25 24 23 22 22 23 24 25 25 26
28 31 32 34 35 34 33 36 40 42 42 38 32 28 27 29 31 31 28 26 25 26 28 29 31 34 36 37 38 39 39 41 42 41 42 42 40 39 39 37 32 29 34 39 37 33 27 23 23 23 19 15 16 19 20 22 25 24 21 20 22 23 21 20 21 21 22 24 25 26 28 29 29 29
31 33 33 33 32 32 36 40 41 38 34 30 27 27 29 30 30 29 26 23 22 22 23 24 26 29 31 33 35 36 37 40 42 41 41 42 41 39 39 41 40 40 41 40 37 36 31 25 26 27 22 15 13 12 12 14 17 16 15 16 18 18 17 17 18 20 22 25 27 29 30 30 30 31
31 30 29 30 33 36 38 37 33 30 28 26 25 27 28 28 27 25 23 22 21 21 22 22 24 26 28 30 33 37 39 40 40 40 40 40 40 38 37 39 39 40 40 36 32 34 34 31 30 30 27 21 15 11 11 14 17 18 17 17 17 17 18 18 20 22 25 26 28 29 28 28 29 30
24 24 27 32 34 32 30 28 27 26 25 24 25 25 25 24 23 22 22 22 21 21 22 22 24 26 28 30 33 37 37 35 34 34 34 33 34 33 34 35 36 37 37 34 30 30 32 34 33 30 26 23 19 15 14 15 19 22 20 17 16 18 19 19 21 23 25 26 28 28 28 29 30 29
21 25 30 30 28 24 23 23 23 23 23 23 22 22 22 22 22 22 22 21 21 22 22 24 25 28 30 31 32 32 30 30 31 30 28 28 28 29 29 29 31 34 36 35 33 30 32 34 33 28 25 23 21 20 19 16 18 22 22 18 16 16 17 18 20 23 24 26 27 27 28 29 30 30
22 26 26 23 21 20 21 21 20 21 21 21 21 21 22 22 23 22 21 21 22 23 24 26 28 30 31 28 25 25 25 27 29 28 26 26 27 28 28 25 25 28 31 33 33 32 33 36 36 33 29 25 23 25 26 22 20 21 22 21 18 16 16 17 17 19 22 25 24 25 26 27 28 29
24 24 22 22 22 21 22 23 23 23 22 21 20 21 22 23 23 22 21 21 21 22 23 26 26 27 28 24 19 20 22 24 25 25 25 27 28 28 24 19 19 21 22 24 29 31 33 35 36 35 33 30 27 27 26 23 23 23 22 21 20 20 21 20 18 18 20 22 24 24 25 26 27 27
24 22 22 23 23 23 24 24 25 25 25 24 22 22 22 23 22 21 20 20 21 22 23 23 23 23 25 23 18 16 18 21 23 23 24 27 28 25 21 18 17 18 16 16 21 27 31 33 32 32 33 33 32 30 24 19 21 25 23 21 20 21 22 21 19 19 20 20 23 23 22 24 26 26
23 22 22 22 22 22 23 22 23 25 26 26 25 25 24 24 23 22 21 22 24 25 24 22 22 22 22 22 21 18 16 19 22 22 22 22 20 16 16 15 15 16 15 14 18 23 27 30 29 29 31 32 32 32 29 23 20 21 22 21 20 21 22 21 19 19 20 19 20 20 19 22 25 25
21 20 20 20 21 21 21 21 22 24 25 26 27 28 27 26 25 24 24 26 27 26 24 22 23 23 22 21 22 21 20 20 19 16 12 11 11 13 14 13 12 14 16 15 17 21 24 25 25 23 22 22 21 23 28 31 28 21 18 19 20 22 22 20 18 18 19 18 18 18 15 15 17 19
20 19 19 20 20 21 21 22 23 24 25 26 28 29 29 28 27 27 28 29 28 25 23 23 24 24 23 22 22 22 22 21 17 11 6 7 10 12 12 12 12 13 15 15 16 18 19 21 22 17 10 8 8 8 16 27 31 25 20 19 20 22 22 19 17 19 19 18 17 16 13 15 17 18
20 19 19 20 20 21 22 23 24 25 25 26 27 27 28 29 29 29 30 29 26 23 22 23 23 23 23 24 24 23 22 21 18 13 7 6 8 9 10 10 10 11 12 12 13 16 16 18 20 15 7 4 5 5 7 14 21 25 25 23 21 19 18 16 15 17 18 19 18 18 19 21 20 21
19 20 20 20 21 22 23 24 25 25 26 27 28 28 28 29 30 31 30 27 25 24 25 25 23 22 23 24 24 24 23 22 20 16 9 5 7 7 8 7 8 10 12 11 13 16 16 15 16 15 9 5 5 6 5 5 10 18 23 24 22 19 17 15 14 15 19 19 17 20 23 24 24 22
19 20 20 20 21 22 23 24 24 25 27 27 27 28 30 30 31 31 30 27 26 26 26 26 24 23 24 25 24 23 22 20 18 17 13 8 7 8 8 8 8 10 11 11 13 16 16 15 17 19 16 12 9 8 8 7 9 14 17 19 20 20 19 17 16 17 16 13 17 19 19 21 22 21
20 20 20 21 22 22 23 24 24 25 26 27 27 28 28 29 30 30 28 27 27 27 26 25 25 24 25 27 28 25 22 19 18 18 17 13 9 9 10 11 10 11 11 10 11 14 16 17 19 20 19 18 16 14 12 11 12 15 18 19 20 22 23 21 19 18 12 16 23 21 20 21 19 18
21 21 21 21 22 23 23 24 24 25 25 26 27 27 27 27 27 27 27 27 27 26 25 25 26 25 26 28 29 26 23 21 19 19 19 16 12 10 11 12 13 11 9 7 8 12 16 18 18 17 17 18 15 10 8 7 7 10 15 18 19 20 21 21 21 18 11 19 26 21 18 19 18 16
21 22 23 23 22 23 23 24 24 25 25 26 27 27 27 27 27 26 27 27 26 25 25 26 26 26 28 30 31 27 23 21 20 19 19 17 14 11 11 12 12 11 9 7 9 14 17 18 17 16 16 17 14 7 4 4 5 6 11 14 15 16 18 19 19 17 13 22 27 21 15 13 12 9
21 22 23 23 23 24 24 24 24 24 25 26 27 27 26 27 27 26 27 27 26 25 26 26 27 28 30 33 32 28 24 22 21 20 19 17 14 13 11 11 13 14 13 12 13 14 15 16 17 17 16 15 14 9 6 6 7 9 11 10 10 11 12 10 10 12 16 22 22 20 19 17 10 7
22 22 23 24 25 25 25 24 24 24 24 25 26 26 25 25 26 26 27 26 26 26 26 27 29 31 33 34 32 29 26 24 21 19 19 18 16 15 14 14 15 16 15 15 14 13 13 15 17 18 16 14 14 12 9 7 9 11 11 7 8 9 10 15 19 18 16 13 11 12 17 16 10 8
22 23 23 25 25 25 25 24 24 24 24 25 25 25 25 24 25 27 27 26 26 26 27 29 31 34 34 32 30 29 28 27 24 22 21 19 17 16 15 15 15 14 14 14 13 11 12 13 15 16 14 13 13 12 11 10 11 11 7 9 11 10 13 19 22 21 19 16 11 8 11 12 10 9
Wind_Direction
301 301 299 296 294 292 291 289 289 289 289 290 292 294 297 299 301 302 298 291 285 291 296 296 297 299 299 298 298 298 296 295 298 300 299 299 299 298 300 301 300 299 299 297 294 292 289 289 289 286 278 271 267 264 264 265 266 266 266 267 268 268 268 269 271 273 271 266 263 262 259 256 252 247
299 297 295 293 291 290 290 288 287 287 287 287 288 289 290 290 287 287 293 290 283 288 291 288 290 298 299 299 300 300 298 297 299 299 297 295 295 295 296 295 294 294 294 294 294 293 292 290 289 287 285 281 276 271 266 264 263 265 265 265 268 269 270 269 269 270 268 265 264 263 263 262 256 250
297 296 294 292 291 291 290 288 287 287 286 287 288 288 286 284 281 280 285 286 282 285 290 289 287 292 296 297 298 298 296 297 298 298 295 295 295 295 293 290 289 290 290 290 291 291 290 289 287 285 285 284 281 279 275 267 263 264 266 267 269 271 274 274 271 269 266 264 263 260 258 257 254 249
295 294 292 291 290 291 290 289 289 288 288 288 288 287 285 282 279 278 278 279 283 284 286 287 286 288 292 292 292 293 294 296 297 296 295 297 298 297 294 290 289 289 289 288 288 287 286 285 284 284 284 283 282 282 281 274 265 263 265 267 269 273 276 276 274 273 269 264 260 256 253 253 250 245
294 293 291 290 289 289 289 288 288 288 288 288 287 285 283 281 278 277 275 273 282 286 285 283 284 287 289 288 287 289 292 294 296 296 294 293 293 293 294 293 291 290 289 290 289 286 284 282 281 280 281 282 281 280 281 278 270 263 262 264 268 274 278 275 275 279 274 266 260 254 251 250 247 243
294 292 290 289 289 289 287 286 286 286 286 285 284 282 280 279 278 276 274 274 279 286 286 284 284 285 285 284 285 285 288 291 293 294 292 288 287 287 289 291 291 289 288 289 290 289 286 283 279 277 277 279 280 279 278 278 276 269 263 262 265 271 277 276 277 281 278 273 268 257 251 249 246 243
292 291 289 288 288 288 286 285 284 283 283 281 280 280 279 277 277 275 273 272 274 280 286 285 283 284 283 282 283 283 284 286 288 289 289 289 290 290 290 290 289 287 286 286 287 288 288 286 282 277 275 275 276 277 276 276 280 277 268 263 262 266 272 276 278 280 278 279 276 264 255 252 248 242
290 288 286 286 286 285 283 282 282 281 281 280 279 279 278 276 276 276 272 270 271 275 281 283 281 282 281 280 281 283 282 282 283 283 284 287 290 292 293 291 288 287 286 285 285 284 284 284 283 281 276 273 272 273 273 272 275 278 272 265 262 263 268 273 278 278 277 277 276 270 262 257 252 245
288 286 285 284 285 283 281 280 280 279 279 279 277 276 276 275 274 274 272 270 270 270 273 279 281 281 280 279 280 281 281 281 282 281 279 280 285 289 291 289 287 288 289 287 285 284 282 280 280 281 279 274 270 270 271 269 268 273 274 269 264 262 264 270 274 274 275 274 271 269 266 262 258 251
288 286 285 284 283 281 279 278 278 278 277 276 275 274 274 274 273 272 271 270 270 269 269 274 279 280 279 279 278 278 278 278 280 281 280 279 279 281 283 285 287 290 291 289 286 285 285 282 278 279 280 277 272 269 269 268 266 268 271 271 267 262 260 265 270 271 271 270 266 266 267 265 260 254
290 287 286 284 282 280 278 277 276 276 275 273 272 272 272 272 271 270 270 269 268 268 269 271 274 277 278 277 275 278 280 278 276 277 278 280 279 277 278 281 286 290 290 286 284 284 286 284 279 276 276 276 274 269 266 265 267 267 267 268 267 262 257 260 265 267 266 265 263 264 265 263 256 249
289 287 285 283 281 279 277 276 275 274 273 272 270 271 271 270 268 267 268 268 266 265 266 268 270 274 276 275 273 277 280 277 271 271 271 273 276 278 279 279 281 284 284 284 285 286 287 285 281 278 276 276 276 272 265 262 265 267 265 264 264 261 256 257 261 262 261 261 261 261 260 255 247 238
287 285 284 282 279 276 274 273 272 271 270 268 267 269 270 268 267 266 265 264 263 262 261 263 266 269 270 269 269 271 272 269 269 272 272 269 271 275 279 280 279 278 279 281 283 284 285 284 281 278 276 276 277 276 270 263 262 265 263 260 260 258 254 253 257 258 257 258 257 255 251 245 238 229
288 286 284 282 278 275 273 270 268 267 266 265 265 266 267 266 265 264 262 259 258 257 255 256 259 261 262 264 264 264 267 270 271 271 269 266 270 274 277 279 279 277 274 274 277 280 281 281 281 279 274 271 273 275 273 267 262 261 261 257 254 253 250 249 254 257 255 254 254 250 241 236 234 231
289 287 285 284 282 279 276 274 272 270 268 267 267 267 267 266 265 263 260 257 255 252 252 253 254 253 256 262 264 263 266 269 268 266 264 265 268 269 265 272 279 278 273 267 271 275 277 276 278 281 278 272 270 272 273 273 267 261 261 257 252 249 247 246 249 255 255 252 250 247 240 233 232 232
292 290 288 286 284 282 280 278 275 274 272 271 269 268 268 267 266 265 262 259 255 251 250 251 251 252 256 261 262 262 263 264 264 264 263 262 260 259 255 256 268 273 272 268 268 273 275 276 278 280 279 276 273 273 274 276 274 268 264 259 253 247 243 243 246 251 254 253 248 246 244 239 234 231
295 293 290 287 286 285 284 281 279 278 276 275 272 270 269 268 267 267 267 266 263 259 255 252 252 254 256 258 260 262 262 261 262 262 261 259 256 254 254 253 258 267 271 269 267 271 274 276 276 276 277 278 277 274 273 273 275 274 269 263 258 251 243 240 243 246 250 252 249 245 245 243 240 237
297 294 290 288 286 287 287 285 283 281 279 277 275 272 270 269 269 269 269 270 269 268 264 260 258 257 257 256 259 262 262 258 256 256 256 257 255 253 254 256 260 265 268 265 264 269 271 271 272 273 274 277 277 274 271 270 271 273 273 269 263 257 248 240 239 242 246 248 249 247 246 246 244 241
299 295 291 289 287 287 287 285 282 280 277 275 273 272 270 270 270 270 270 270 269 268 266 263 260 259 258 256 257 259 259 257 255 255 255 256 257 258 259 260 261 263 264 261 257 258 266 267 267 270 272 275 277 275 272 270 269 271 276 275 265 257 251 243 238 239 243 245 246 247 246 246 245 242
299 296 293 290 288 286 286 285 283 280 277 274 273 272 272 273 272 271 271 271 269 267 265 263 261 260 259 258 257 256 255 254 255 254 254 255 255 256 257 256 255 258 261 258 250 247 260 263 263 268 273 275 277 276 274 272 273 273 275 277 268 256 250 245 238 237 241 242 243 244 245 246 246 244
299 298 296 292 289 288 287 286 287 287 284 280 278 277 276 275 276 275 275 275 274 272 271 268 266 264 261 258 258 258 256 254 253 249 246 246 246 245 246 247 248 251 254 254 249 246 254 260 260 267 273 274 274 276 275 273 273 273 272 275 269 255 246 244 239 238 240 241 241 242 244 245 247 246
300 299 298 293 288 287 287 286 288 291 289 284 282 280 277 275 275 276 278 278 277 277 277 276 275 273 270 267 266 265 262 260 256 248 242 243 241 236 235 240 243 246 248 249 248 245 249 253 255 263 271 274 272 271 272 271 270 271 271 273 268 253 244 243 240 236 237 238 239 242 243 243 245 246
301 298 297 293 289 287 289 290 292 294 293 290 288 286 282 277 274 277 279 278 277 277 276 276 275 275 276 276 275 273 269 268 265 258 253 250 243 235 234 236 238 240 242 244 243 240 241 244 245 251 262 278 279 273 269 268 269 270 269 267 264 253 244 241 236 232 234 235 236 239 241 241 244 247
299 298 297 297 297 296 296 297 299 301 302 301 299 295 288 280 278 282 282 278 275 273 272 272 271 270 271 271 270 270 268 268 266 263 260 254 245 238 235 232 231 232 239 241 238 232 233 235 237 245 246 250 277 279 274 272 273 269 263 258 254 247 238 231 226 226 230 232 235 241 244 245 246 248
299 300 299 301 304 303 300 300 303 305 305 306 304 301 294 287 289 295 294 288 283 277 273 271 269 268 267 266 264 263 262 262 262 260 259 256 247 240 236 232 230 234 240 241 235 226 225 225 226 238 242 240 255 270 273 276 276 266 254 247 243 238 229 221 221 225 229 234 242 249 251 251 251 250
304 302 302 303 304 303 300 302 305 306 307 308 307 304 301 301 306 311 309 301 293 283 276 272 268 265 264 262 261 260 258 258 259 257 258 258 253 246 241 238 235 235 239 240 232 222 218 216 217 228 238 241 251 260 263 268 269 260 245 236 236 236 233 230 232 237 242 248 253 258 259 258 255 251
303 302 302 303 303 303 304 306 309 310 312 313 311 310 313 316 318 318 313 306 298 289 283 278 270 264 261 259 258 258 256 256 257 257 259 262 258 251 245 241 239 240 242 241 233 223 219 219 223 229 234 238 252 264 264 264 265 260 250 245 245 247 248 249 251 255 257 259 261 261 262 260 254 248
301 301 302 305 307 308 310 312 314 315 315 316 316 317 320 321 320 317 314 309 304 298 292 286 280 273 265 258 255 255 254 256 258 259 261 262 257 250 245 241 239 239 240 240 233 223 220 222 227 231 232 234 242 254 264 269 272 272 269 264 262 262 261 261 262 263 262 261 258 255 255 254 248 242
299 300 305 310 311 312 315 317 318 318 318 318 318 319 321 321 320 318 313 308 305 299 293 289 287 283 276 266 259 258 258 259 259 258 257 256 253 248 244 242 239 238 237 236 230 222 217 220 225 228 229 230 235 245 254 264 270 271 269 265 264 267 266 263 261 260 259 255 250 247 246 245 240 235
299 304 310 313 315 316 319 321 322 322 321 320 319 320 322 323 322 318 313 309 305 299 294 293 290 288 286 279 266 260 257 255 252 250 248 248 247 242 237 235 236 237 236 233 229 223 219 221 224 226 228 231 238 248 255 261 267 268 264 257 258 265 266 262 257 254 251 248 245 243 242 239 235 234
311 315 318 322 324 324 325 326 328 329 329 327 325 324 324 324 322 320 315 309 304 299 297 296 293 295 300 291 268 253 249 247 247 247 244 242 243 239 231 225 226 232 234 232 228 225 223 225 227 228 231 235 239 245 250 254 260 265 262 252 248 253 259 261 260 256 249 243 239 237 235 233 233 234
321 324 329 336 339 338 336 337 337 338 338 335 330 326 326 325 323 321 317 312 307 304 303 300 299 306 313 305 274 251 247 249 251 250 244 241 242 237 223 211 215 224 226 225 224 223 223 225 226 227 229 231 235 240 245 248 251 255 256 250 246 250 256 258 262 268 262 245 234 232 232 232 234 237
328 335 341 343 344 342 339 339 339 339 338 336 332 331 330 328 326 323 321 317 314 313 312 310 309 313 319 319 306 279 260 257 260 257 248 246 246 234 213 201 209 215 212 209 213 217 220 222 222 224 226 229 233 236 237 241 246 245 245 246 248 251 255 256 258 271 275 252 230 227 233 236 239 241
338 345 344 341 340 339 337 336 336 336 335 333 332 332 332 332 331 328 325 323 322 321 320 319 320 320 319 323 325 317 296 280 274 269 261 255 245 218 195 197 206 207 206 204 204 207 211 213 215 219 224 229 235 237 235 236 243 241 240 244 247 249 256 259 258 268 277 262 234 226 231 236 238 239
345 345 339 335 335 335 334 333 333 333 332 331 330 331 332 334 335 333 330 330 328 326 325 325 327 327 325 323 324 323 319 307 290 276 262 243 216 190 187 197 203 201 202 203 200 199 200 200 202 209 218 225 232 236 235 234 237 239 241 244 246 248 254 259 262 268 277 270 246 232 219 206 206 209
344 340 335 333 332 331 330 330 330 330 330 330 330 331 330 332 334 333 333 332 330 328 329 330 329 329 329 328 324 321 322 321 309 289 248 204 194 190 193 201 205 203 201 200 198 194 190 190 191 194 202 209 209 224 231 229 231 235 239 242 246 248 251 260 269 270 271 271 256 233 193 160 156 159
339 337 334 331 329 328 327 326 327 328 329 329 330 330 328 328 329 330 332 333 332 329 330 331 329 327 329 331 328 324 323 323 318 307 278 220 203 197 195 200 205 201 196 194 192 187 183 183 185 185 184 186 197 216 225 222 228 235 237 238 243 246 248 259 270 269 270 270 251 212 174 153 147 149
333 332 331 328 327 326 325 325 326 327 327 329 329 329 328 327 328 331 334 335 333 331 332 332 330 328 329 330 331 328 323 320 317 313 301 250 216 208 198 190 187 188 188 187 188 188 188 184 182 184 187 187 204 222 219 210 222 228 231 234 239 245 251 253 256 266 270 259 226 190 168 156 152 149
330 328 327 325 325 325 324 324 324 324 326 328 328 328 328 328 329 331 334 334 332 331 331 331 330 328 328 329 330 327 320 315 311 309 303 278 235 218 203 184 177 182 184 184 187 191 194 195 193 194 196 200 211 218 212 217 232 236 239 242 242 246 251 245 245 262 260 217 175 157 149 146 143 139
328 326 325 324 324 323 322 322 323 323 324 326 327 327 327 327 328 330 332 332 330 329 328 328 329 327 326 327 330 328 321 312 306 303 299 288 260 228 208 195 186 183 182 186 191 195 200 204 204 204 205 210 219 224 224 236 249 250 251 251 248 249 250 240 239 253 236 166 145 138 137 135 133 134
326 325 325 324 323 322 321 321 322 322 323 324 325 326 326 326 327 328 328 328 327 326 325 326 327 326 324 325 328 327 320 312 308 305 300 290 269 241 220 206 196 190 190 191 195 203 211 213 213 214 216 215 217 223 230 241 251 247 248 251 252 250 245 237 241 252 222 154 142 139 140 142 141 144
324 323 323 324 322 321 321 321 321 322 323 323 325 326 326 326 326 327 328 328 327 326 325 325 325 324 322 323 325 323 316 308 304 302 298 287 267 246 229 213 201 198 200 204 209 216 220 219 215 213 214 211 208 207 221 239 251 256 259 261 256 245 238 237 245 248 206 159 148 144 145 146 144 143
323 321 321 322 322 321 321 321 322 322 322 323 325 325 325 325 326 327 328 328 327 326 325 323 322 321 320 321 323 320 312 304 298 294 294 287 265 242 230 218 208 205 207 214 220 221 220 217 211 206 203 204 207 213 228 243 256 262 261 257 244 230 219 206 194 181 166 157 155 157 160 160 157 163
321 320 320 320 321 321 321 322 323 323 323 323 324 325 324 323 323 325 326 326 325 324 323 320 320 320 320 321 321 316 309 305 297 288 289 288 268 245 233 223 213 207 208 214 220 220 215 209 202 197 197 201 207 217 227 235 250 258 252 221 190 179 150 127 124 126 127 128 140 162 170 169 167 175
319 319 319 320 321 321 322 323 323 324 324 324 324 323 323 322 322 324 325 325 324 323 321 319 319 320 320 319 317 310 306 305 299 290 288 286 270 249 234 221 208 201 203 207 210 210 206 197 190 191 196 201 208 217 223 230 244 249 220 163 156 150 124 113 111 104 91 84 89 132 163 165 155 152